User: anonymous   Login
Location: Altleiningen
(49.5078°N, 8.0741°E)
Time: 21:58:54
(UTC+00:00)
Language:

Resurs 1-3 - Orbit

View from above orbital plane
View from above orbital plane
View from above satellite
View from above satellite

Ground track
Ground track

The orbit data is extracted from the following two-line orbital elements,

1 23342U 94074A   21128.14582950  .00000102  00000-0  20531-4 0  9994
2 23342  97.8812 177.7841 0002227  78.2350 281.9111 14.79413788427866
Epoch (UTC): 08 May 2021 03:29:59
Eccentricity: 0.0002227
inclination: 97.8812°
perigee height: 629 km
apogee height: 633 km
right ascension of ascending node: 177.7841°
argument of perigee: 78.2350°
revolutions per day: 14.79413788
mean anomaly at epoch: 281.9111°
orbit number at epoch: 42786

The dashed part of the orbit path shows where the satellite is in the earth's shadow,  

DLR